Flag for Germany Weather past 2 weeks in Berlin, Berlin, Germany

Now
79 °F

Warm.


Feels Like: 80 °F
Forecast: 68 / 86 °F
Wind: 2 mph from East

Location: Berlin-Tempelhof

Current Time: Jul 26, 2014 at 10:01:52 PM

Latest Report: Jul 26, 2014 at 9:00 PM


Visibility: N/A

Pressure: 29.90 "Hg

Humidity: 48%

Dew point: 58 °F

Location of BerlinLocation

Historic Weather in Berlin — Graph

°F

Berlin temperature yesterday

Maximum temperature yesterday: 72 °F (at 5:00 PM)
Minimum temperature yesterday: 63 °F (at 12:00 AM)
Average temperature yesterday: 67 °F

Past Weeks' High & Low Weather Summary

 TemperatureHumidityPressure
High85 °F (Jul 22, 6:00 PM)97% (Jul 26, 8:00 AM)30.18 "Hg (Jul 26, 8:00 AM)
Low55 °F (Jul 13, 5:00 AM)26% (Jul 23, 5:00 PM)29.72 "Hg (Jul 13, 7:00 PM)
Average69 °F69%29.96 "Hg
* Reported Jul 11 9:00 PM — Jul 26 9:00 PM, Berlin, Weather by CustomWeather, © 2014

Note: Actual official high and low records may vary slightly from our data, if they occured in-between our weather recording intervals... More about our weather records

Advertising

Berlin weather history for previous 24 hours

 ConditionsComfort  
Time TempWeatherWind HumidityBarometerVisibility
9:00 PM
Jul 26
79 °FWarm.2 mph48%29.90 "HgN/A
8:00 PM82 °FWarm.2 mph45%29.89 "HgN/A
7:00 PM84 °FWarm.2 mph40%29.89 "HgN/A
6:00 PM85 °FWarm.1 mph40%29.90 "HgN/A
5:00 PM83 °FWarm.2 mph46%29.90 "HgN/A
4:00 PM83 °FWarm.3 mph43%29.91 "HgN/A
3:00 PM82 °FWarm.2 mph52%29.93 "HgN/A
2:00 PM79 °FWarm.3 mph60%29.93 "HgN/A
1:00 PM76 °FMild.3 mph66%29.95 "HgN/A
12:00 PM72 °FMild.2 mph79%29.96 "HgN/A
11:00 AM69 °FMild.2 mph89%29.96 "HgN/A
10:00 AM67 °FMild.2 mph95%29.96 "HgN/A
9:00 AM66 °FMild.2 mph96%29.95 "HgN/A
8:00 AM65 °FMild.2 mph97%29.95 "HgN/A
7:00 AM65 °FMild.2 mph96%29.95 "HgN/A
6:00 AM64 °FMild.3 mph96%29.94 "HgN/A
5:00 AM63 °FMild.2 mph95%29.93 "HgN/A
4:00 AM63 °FMild.1 mph95%29.93 "HgN/A
3:00 AM62 °FCool.1 mph95%29.93 "HgN/A
2:00 AM64 °FMild.1 mph93%29.94 "HgN/A
1:00 AM64 °FMild.1 mph92%29.95 "HgN/A
12:00 AM65 °FMild.2 mph92%29.95 "HgN/A
11:00 PM
Jul 25
64 °FMild.5 mph90%29.94 "HgN/A
10:00 PM64 °FMild.3 mph92%29.94 "HgN/A
Weather by CustomWeather, © 2014

See weather overviewHow to use our weather pages